TimeEDT,TemperatureF,Dew PointF,Humidity,Sea Level PressureIn,VisibilityMPH,Wind Direction,Wind SpeedMPH,Gust SpeedMPH,PrecipitationIn,Events,Conditions,WindDirDegrees,DateUTC
12:15 AM,46.6,43.9,90,30.20,10.0,North,10.4,-,N/A,,Overcast,10,2013-04-25 04:15:00
12:35 AM,45.0,42.4,91,30.21,10.0,North,9.2,17.3,N/A,,Overcast,10,2013-04-25 04:35:00
12:55 AM,44.1,41.7,91,30.21,10.0,North,10.4,18.4,N/A,,Overcast,10,2013-04-25 04:55:00
1:15 AM,43.7,39.4,85,30.22,10.0,North,9.2,16.1,N/A,,Overcast,360,2013-04-25 05:15:00
1:35 AM,43.3,38.3,82,30.22,10.0,North,8.1,-,N/A,,Overcast,360,2013-04-25 05:35:00
1:55 AM,43.3,37.2,79,30.21,10.0,North,6.9,-,N/A,,Overcast,10,2013-04-25 05:55:00
2:15 AM,43.3,36.3,76,30.21,10.0,North,5.8,-,N/A,,Overcast,10,2013-04-25 06:15:00
2:35 AM,43.3,36.1,76,30.21,10.0,North,5.8,-,N/A,,Overcast,360,2013-04-25 06:35:00
2:55 AM,43.0,36.1,77,30.21,10.0,North,5.8,-,N/A,,Overcast,360,2013-04-25 06:55:00
3:15 AM,42.8,36.0,77,30.22,10.0,North,6.9,-,N/A,,Overcast,350,2013-04-25 07:15:00
3:35 AM,42.1,36.1,79,30.22,10.0,Calm,Calm,-,N/A,,Mostly Cloudy,0,2013-04-25 07:35:00
3:55 AM,41.4,36.0,81,30.22,10.0,Calm,Calm,-,N/A,,Scattered Clouds,0,2013-04-25 07:55:00
4:15 AM,40.1,36.5,87,30.23,10.0,North,3.5,-,N/A,,Clear,350,2013-04-25 08:15:00
4:35 AM,39.2,36.5,90,30.23,10.0,NNW,3.5,-,N/A,,Clear,340,2013-04-25 08:35:00
4:55 AM,39.6,35.6,86,30.23,10.0,Calm,Calm,-,N/A,,Clear,0,2013-04-25 08:55:00
5:15 AM,40.6,34.7,79,30.23,10.0,North,3.5,-,N/A,,Scattered Clouds,360,2013-04-25 09:15:00
5:35 AM,40.5,34.0,78,30.23,10.0,Calm,Calm,-,N/A,,Scattered Clouds,0,2013-04-25 09:35:00
5:55 AM,39.0,35.1,86,30.23,10.0,Calm,Calm,-,N/A,,Scattered Clouds,0,2013-04-25 09:55:00
6:15 AM,37.2,35.2,93,30.23,10.0,Calm,Calm,-,N/A,,Scattered Clouds,0,2013-04-25 10:15:00
6:35 AM,36.9,35.1,93,30.23,10.0,Calm,Calm,-,N/A,,Scattered Clouds,0,2013-04-25 10:35:00
6:55 AM,36.0,35.1,97,30.24,10.0,Calm,Calm,-,N/A,,Clear,0,2013-04-25 10:55:00
7:15 AM,36.3,35.4,97,30.25,10.0,Calm,Calm,-,N/A,,Clear,0,2013-04-25 11:15:00
7:35 AM,37.8,35.8,93,30.25,10.0,Calm,Calm,-,N/A,,Clear,0,2013-04-25 11:35:00
7:55 AM,39.2,36.5,90,30.26,10.0,Calm,Calm,-,N/A,,Clear,0,2013-04-25 11:55:00
8:15 AM,42.1,34.9,76,30.27,10.0,Calm,Calm,-,N/A,,Clear,0,2013-04-25 12:15:00
8:35 AM,43.0,34.5,72,30.28,10.0,Calm,Calm,-,N/A,,Clear,0,2013-04-25 12:35:00
8:55 AM,43.7,34.9,71,30.28,10.0,NE,3.5,-,N/A,,Clear,40,2013-04-25 12:55:00
9:15 AM,44.6,35.1,69,30.28,10.0,Calm,Calm,-,N/A,,Scattered Clouds,0,2013-04-25 13:15:00
9:35 AM,44.6,35.1,69,30.28,10.0,Calm,Calm,-,N/A,,Scattered Clouds,0,2013-04-25 13:35:00
9:55 AM,46.8,37.2,69,30.30,10.0,WNW,3.5,-,N/A,,Scattered Clouds,290,2013-04-25 13:55:00
10:15 AM,46.0,35.8,67,30.30,10.0,Calm,Calm,-,N/A,,Scattered Clouds,0,2013-04-25 14:15:00
10:35 AM,46.2,35.2,66,30.31,10.0,Calm,Calm,-,N/A,,Clear,0,2013-04-25 14:35:00
10:55 AM,48.9,37.8,65,30.32,10.0,SW,4.6,-,N/A,,Scattered Clouds,230,2013-04-25 14:55:00
11:15 AM,47.5,37.0,67,30.32,10.0,Calm,Calm,-,N/A,,Mostly Cloudy,0,2013-04-25 15:15:00
11:35 AM,50.2,37.6,62,30.32,10.0,East,3.5,-,N/A,,Scattered Clouds,90,2013-04-25 15:35:00
11:55 AM,51.3,39.0,63,30.32,10.0,WSW,6.9,-,N/A,,Scattered Clouds,240,2013-04-25 15:55:00
12:15 PM,52.5,40.1,63,30.32,10.0,SSW,5.8,-,N/A,,Clear,210,2013-04-25 16:15:00
12:35 PM,52.3,36.7,55,30.32,10.0,WSW,5.8,-,N/A,,Clear,250,2013-04-25 16:35:00
12:55 PM,53.2,38.8,58,30.32,10.0,Calm,Calm,-,N/A,,Clear,0,2013-04-25 16:55:00
1:15 PM,53.6,35.6,51,30.31,10.0,Calm,Calm,-,N/A,,Clear,0,2013-04-25 17:15:00
1:35 PM,54.9,37.2,51,30.31,10.0,WSW,4.6,-,N/A,,Clear,250,2013-04-25 17:35:00
1:55 PM,55.8,37.8,51,30.30,10.0,WSW,4.6,-,N/A,,Clear,250,2013-04-25 17:55:00
2:15 PM,57.0,39.7,52,30.31,10.0,West,5.8,-,N/A,,Clear,280,2013-04-25 18:15:00
2:35 PM,57.4,36.9,46,30.30,10.0,Calm,Calm,-,N/A,,Clear,0,2013-04-25 18:35:00
2:55 PM,58.3,37.6,46,30.30,10.0,WSW,4.6,-,N/A,,Clear,240,2013-04-25 18:55:00
3:15 PM,59.0,38.3,46,30.30,10.0,Calm,Calm,-,N/A,,Clear,0,2013-04-25 19:15:00
3:35 PM,60.1,37.8,44,30.28,10.0,West,9.2,-,N/A,,Clear,260,2013-04-25 19:35:00
3:55 PM,60.3,36.3,41,30.28,10.0,WNW,5.8,-,N/A,,Clear,300,2013-04-25 19:55:00
4:15 PM,60.8,37.6,42,30.27,10.0,WSW,8.1,-,N/A,,Clear,250,2013-04-25 20:15:00
4:35 PM,60.8,39.4,45,30.26,10.0,WSW,11.5,-,N/A,,Clear,250,2013-04-25 20:35:00
4:55 PM,61.0,38.5,43,30.26,10.0,West,3.5,-,N/A,,Clear,260,2013-04-25 20:55:00
5:15 PM,61.0,39.0,44,30.26,10.0,WSW,10.4,16.1,N/A,,Clear,250,2013-04-25 21:15:00
5:35 PM,61.3,37.8,42,30.26,10.0,West,8.1,-,N/A,,Clear,270,2013-04-25 21:35:00
5:55 PM,61.0,36.3,40,30.26,10.0,WSW,11.5,-,N/A,,Clear,240,2013-04-25 21:55:00
6:15 PM,61.0,36.0,39,30.27,10.0,West,8.1,-,N/A,,Clear,260,2013-04-25 22:15:00
6:35 PM,60.8,34.7,38,30.27,10.0,West,8.1,-,N/A,,Clear,280,2013-04-25 22:35:00
6:55 PM,60.1,34.3,38,30.27,10.0,West,5.8,-,N/A,,Clear,260,2013-04-25 22:55:00
7:15 PM,59.5,34.5,39,30.28,10.0,West,8.1,-,N/A,,Clear,260,2013-04-25 23:15:00
7:35 PM,58.5,33.8,39,30.28,10.0,West,8.1,-,N/A,,Clear,270,2013-04-25 23:35:00
7:55 PM,57.2,32.9,40,30.28,10.0,West,5.8,-,N/A,,Clear,280,2013-04-25 23:55:00
8:15 PM,56.3,32.2,40,30.29,10.0,WNW,4.6,-,N/A,,Clear,290,2013-04-26 00:15:00
8:35 PM,55.6,32.5,42,30.30,10.0,WNW,3.5,-,N/A,,Clear,290,2013-04-26 00:35:00
8:55 PM,55.4,33.1,43,30.30,10.0,WNW,4.6,-,N/A,,Clear,300,2013-04-26 00:55:00
9:15 PM,54.7,33.8,45,30.32,10.0,NW,3.5,-,N/A,,Clear,310,2013-04-26 01:15:00
9:35 PM,51.8,35.2,53,30.32,10.0,NNW,3.5,-,N/A,,Clear,340,2013-04-26 01:35:00
9:55 PM,50.5,35.4,56,30.33,10.0,Calm,Calm,-,N/A,,Clear,0,2013-04-26 01:55:00
10:15 PM,48.2,37.2,66,30.33,10.0,Calm,Calm,-,N/A,,Clear,0,2013-04-26 02:15:00
10:35 PM,47.1,37.8,70,30.34,10.0,Calm,Calm,-,N/A,,Clear,0,2013-04-26 02:35:00
10:55 PM,46.4,37.4,71,30.34,10.0,Calm,Calm,-,N/A,,Clear,0,2013-04-26 02:55:00
11:15 PM,45.7,37.2,72,30.34,10.0,Calm,Calm,-,N/A,,Clear,0,2013-04-26 03:15:00
11:35 PM,44.6,36.5,73,30.35,10.0,Calm,Calm,-,N/A,,Clear,0,2013-04-26 03:35:00
11:55 PM,44.2,36.5,74,30.35,10.0,Calm,Calm,-,N/A,,Clear,0,2013-04-26 03:55:00